[[{"header":{"parameterUnit":"m.s-1","parameterCategory":1,"la1":30.2992,"la2":30.254,"lo1":-89.0895,"lo2":-89.0443,"dy":0.0025,"dx":0.0025,"nx":19,"ny":19,"refTime":"2026-04-12T03:00:00:Z","depth":0,"parameterNumber":2,"parameterNumberName":"U-component_of_WINDS"},"data":[0,0,0,-3.2848,-3.285,-3.2929,-3.2929,-3.3036,-3.3037,0,0,0,0,0,0,0,0,0,0,0,-3.2827,-3.2827,-3.2848,-3.285,-3.2929,-3.293,-3.3036,-3.3037,0,0,0,0,0,0,0,0,0,0,0,-3.2826,-3.2827,-3.2828,-3.285,-3.2929,-3.293,-3.3036,-3.2974,0,0,0,0,0,0,0,0,0,0,-3.2896,-3.2879,-3.2827,-3.2828,-3.2851,-3.2929,-3.293,-3.2971,-3.2978,-3.3002,0,-3.3024,0,-3.3032,-3.3045,-3.3045,0,0,0,-3.2848,-3.2873,-3.2892,-3.2828,-3.2851,-3.2929,-3.2893,-3.2975,-3.2983,-3.3012,-3.3025,-3.3029,-3.3034,-3.3045,-3.3046,-3.3189,-3.319,0,0,-3.2844,-3.2842,-3.2887,-3.2898,-3.2885,-3.289,-3.2895,-3.298,-3.2995,-3.3026,-3.3032,-3.3036,-3.3046,-3.3047,-3.3188,-3.3189,0,0,0,-3.2832,-3.2839,-3.2856,-3.2893,-3.2907,-3.2893,-3.2898,-3.2991,-3.2997,-3.3033,-3.3037,-3.3047,-3.3048,-3.3187,-3.3189,-3.3221,0,0,0,-3.283,-3.2833,-3.2855,-3.2855,-3.2906,-3.295,-3.2908,-3.2991,-3.3,-3.3037,-3.3047,-3.3049,-3.3187,-3.3188,-3.3219,-3.3236,0,0,0,-3.2821,-3.2832,-3.2844,-3.2854,-3.2888,-3.2949,-3.2959,-3.2993,-3.3003,-3.3045,-3.305,-3.3186,-3.3188,-3.3216,-3.3233,-3.3272,0,0,0,-3.2811,-3.2873,-3.2844,-3.2916,-3.2888,-3.2969,-3.2959,-3.302,-3.306,-3.3047,-3.3187,-3.3188,-3.3216,-3.323,-3.3269,-3.3302,-3.3316,0,0,-3.2888,-3.2882,-3.2925,-3.2901,-3.2987,-3.2957,-3.3048,-3.3087,-3.3094,-3.3157,-3.3161,-3.322,-3.3232,-3.3271,-3.3403,-3.3414,0,0,0,-3.2949,-3.2979,-3.3002,-3.3039,-3.3071,-3.3098,-3.3124,-3.3138,-3.3192,-3.3126,-3.3246,-3.3254,-3.3277,-3.3292,-3.3302,-3.332,-3.3197,-3.3196,-3.3196,-3.3054,-3.3058,-3.3128,-3.3142,-3.3179,-3.3205,-3.3235,-3.326,-3.3254,-3.3283,-3.33,-3.3379,-3.3398,-3.3405,-3.3424,-3.3321,-3.3321,-3.3321,-3.3321,-3.3165,-3.3207,-3.3199,-3.3263,-3.3268,-3.3322,-3.3351,-3.3345,-3.3396,-3.3366,-3.3387,-3.335,-3.3417,-3.3434,-3.3324,-3.3323,-3.3323,-3.3323,-3.3323,-3.3232,-3.3252,-3.3269,-3.3324,-3.3367,-3.3381,-3.343,-3.3434,-3.3438,-3.3458,-3.3476,-3.3476,-3.3473,-3.3467,-3.3468,-3.3468,-3.3468,-3.3468,-3.3469,-3.3292,-3.3311,-3.3351,-3.339,-3.3415,-3.3448,-3.3476,-3.3501,-3.3529,-3.3528,-3.3528,-3.3518,-3.3424,-3.3398,-3.3473,-3.3472,-3.3471,-3.3471,-3.3471,-3.3397,-3.3374,-3.3437,-3.3461,-3.3508,-3.3549,-3.3555,-3.3605,-3.3626,-3.3651,-3.3638,-3.3569,-3.3562,-3.3555,-3.3533,-3.3638,-3.3638,-3.3638,-3.3638,-3.3451,-3.3449,-3.3513,-3.3552,-3.3591,-3.3603,-3.3673,-3.3697,-3.3718,-3.3732,-3.3718,-3.3691,-3.3683,-3.3682,-3.3671,-3.3651,-3.3784,-3.3784,-3.3784,-3.3514,-3.3517,-3.3574,-3.3594,-3.3631,-3.3663,-3.3729,-3.3775,-3.3794,-3.379,-3.3742,-3.3736,-3.3692,-3.3679,-3.3668,-3.3652,-3.3615,0,0]},{"header":{"parameterUnit":"m.s-1","parameterCategory":1,"la1":30.2992,"la2":30.254,"lo1":-89.0895,"lo2":-89.0443,"dy":0.0025,"dx":0.0025,"nx":19,"ny":19,"refTime":"2026-04-12T03:00:00:Z","depth":0,"parameterNumber":3,"parameterNumberName":"V-component_of_WINDS"},"data":[0,0,0,3.2204,3.2205,3.2266,3.2267,3.2318,3.2318,0,0,0,0,0,0,0,0,0,0,0,3.217,3.217,3.2204,3.2205,3.2266,3.2267,3.2318,3.2318,0,0,0,0,0,0,0,0,0,0,0,3.217,3.217,3.217,3.2205,3.2266,3.2267,3.2317,3.2281,0,0,0,0,0,0,0,0,0,0,3.2226,3.2179,3.217,3.217,3.2206,3.2266,3.2267,3.2279,3.2283,3.2279,0,3.2271,0,3.2295,3.232,3.232,0,0,0,3.2216,3.2176,3.2207,3.217,3.2206,3.2266,3.2242,3.2282,3.2286,3.2283,3.2272,3.2275,3.2296,3.232,3.232,3.2262,3.2261,0,0,3.2213,3.2172,3.2204,3.2209,3.2199,3.224,3.2244,3.2285,3.2269,3.2273,3.2277,3.2297,3.232,3.232,3.2263,3.2262,0,0,0,3.2196,3.2169,3.22,3.2206,3.222,3.2241,3.2246,3.2268,3.2281,3.2277,3.2298,3.232,3.232,3.2264,3.2262,3.2185,0,0,0,3.2194,3.2159,3.2198,3.2173,3.2218,3.2244,3.2227,3.2278,3.2284,3.2297,3.232,3.2321,3.2265,3.2263,3.2189,3.2154,0,0,0,3.2171,3.2157,3.2161,3.2171,3.2197,3.2245,3.2261,3.2281,3.2296,3.232,3.2321,3.2265,3.2263,3.2193,3.216,3.2128,0,0,0,3.2135,3.2088,3.2159,3.2115,3.2196,3.2197,3.2261,3.2264,3.2275,3.232,3.2265,3.2263,3.2194,3.2164,3.2132,3.2094,3.2074,0,0,3.2053,3.2077,3.2055,3.212,3.2099,3.2191,3.2159,3.2206,3.2244,3.2254,3.2253,3.2188,3.2161,3.2129,3.1979,3.1963,0,0,0,3.2015,3.1998,3.2002,3.2012,3.2049,3.2079,3.2136,3.2154,3.2165,3.2241,3.2169,3.2154,3.2137,3.2121,3.2107,3.2096,3.2253,3.2254,3.2254,3.1839,3.1894,3.1861,3.1924,3.1933,3.1995,3.2008,3.2043,3.2092,3.2075,3.2077,3.198,3.1959,3.1949,3.1937,3.2062,3.2062,3.2062,3.2061,3.1724,3.171,3.1782,3.1776,3.1834,3.183,3.1889,3.1925,3.1929,3.1982,3.1969,3.2022,3.193,3.1922,3.2056,3.2057,3.2058,3.2058,3.2059,3.1614,3.1617,3.1643,3.1666,3.1678,3.1743,3.1745,3.1798,3.1847,3.1835,3.1844,3.1846,3.1854,3.1836,3.1836,3.1835,3.1835,3.1835,3.1835,3.1489,3.1521,3.1517,3.1556,3.1572,3.1599,3.1664,3.168,3.1711,3.1749,3.175,3.1801,3.1912,3.1938,3.183,3.183,3.1831,3.1832,3.1832,3.1351,3.1392,3.1385,3.1401,3.1454,3.1463,3.1532,3.1561,3.1583,3.1582,3.1639,3.1712,3.1739,3.175,3.1772,3.1627,3.1627,3.1627,3.1627,3.1258,3.1278,3.1286,3.1308,3.1336,3.14,3.1391,3.1442,3.1501,3.1517,3.1547,3.1581,3.159,3.1612,3.1626,3.1647,3.1474,3.1474,3.1473,3.1176,3.1203,3.1185,3.1246,3.1292,3.133,3.1324,3.1347,3.1422,3.1468,3.1532,3.1538,3.1595,3.161,3.1655,3.1676,3.1716,0,0]}]]